When you browse on this site, cookies collect data to enhance your experience and personalize the content and advertising you see.
Visit our Privacy Policy to learn more. By continuing to use the site, you agree to this use of cookies and data.
  • In Switzerland
  • List of Countries
  • For 7 days
  • Water Temperature
  • Weather Map
  • Weather Widgets
  • user-avatar
    Login

    Hourly Weather Ontinyent

    Today, 17 September, Tuesday

    Time Temperature Precipitation Wind Pressure Humidity
    00:00 +19°C° 0 mm 0 mps 722 mmHg 92%
    01:00 +19°C° 0 mm 0 mps 722 mmHg 91%
    02:00 +21°C° 0 mm 1 mps 722 mmHg 91%
    03:00 +21°C° 0 mm 1 mps 721 mmHg 90%
    04:00 +21°C° 0 mm 1 mps 721 mmHg 89%
    05:00 +21°C° 0 mm 1 mps 721 mmHg 89%
    06:00 +21°C° 0 mm 1 mps 721 mmHg 89%
    07:00 +23°C° 0 mm 1 mps 722 mmHg 80%
    08:00 +24°C° 0 mm 1 mps 722 mmHg 72%
    09:00 +26°C° 0 mm 1 mps 722 mmHg 64%
    10:00 +27°C° 0 mm 1 mps 722 mmHg 58%
    11:00 +28°C° 0 mm 2 mps 722 mmHg 53%
    12:00 +29°C° 0 mm 3 mps 722 mmHg 48%
    13:00 +29°C° 0 mm 3 mps 722 mmHg 49%
    14:00 +29°C° 0 mm 3 mps 721 mmHg 49%
    15:00 +29°C° 0 mm 2 mps 721 mmHg 50%
    16:00 +28°C° 0 mm 2 mps 720 mmHg 55%
    17:00 +27°C° 0 mm 2 mps 720 mmHg 61%
    18:00 +26°C° 0 mm 2 mps 720 mmHg 67%
    19:00 +25°C° 0.5 mm 2 mps 720 mmHg 71%
    20:00 +24°C° 0.5 mm 2 mps 721 mmHg 75%
    21:00 +22°C° 0.5 mm 3 mps 721 mmHg 80%
    22:00 +23°C° 0.5 mm 2 mps 721 mmHg 78%
    23:00 +23°C° 0.5 mm 2 mps 721 mmHg 76%

    Tomorrow, 18 September, Wednesday

    Time Temperature Precipitation Wind Pressure Humidity
    00:00 +22°C° 0.5 mm 1 mps 720 mmHg 75%
    01:00 +22°C° 0 mm 1 mps 720 mmHg 74%
    02:00 +22°C° 0 mm 1 mps 720 mmHg 73%
    03:00 +22°C° 0 mm 1 mps 719 mmHg 72%
    04:00 +22°C° 0 mm 1 mps 719 mmHg 72%
    05:00 +21°C° 0 mm 1 mps 719 mmHg 72%
    06:00 +21°C° 0 mm 1 mps 720 mmHg 73%
    07:00 +23°C° 0 mm 1 mps 720 mmHg 64%
    08:00 +25°C° 0 mm 1 mps 720 mmHg 56%
    09:00 +27°C° 0 mm 1 mps 721 mmHg 48%
    10:00 +28°C° 0 mm 1 mps 721 mmHg 45%
    11:00 +29°C° 0 mm 1 mps 721 mmHg 41%
    12:00 +30°C° 0 mm 2 mps 721 mmHg 37%
    13:00 +31°C° 0 mm 2 mps 721 mmHg 36%
    14:00 +31°C° 0 mm 2 mps 721 mmHg 35%
    15:00 +31°C° 0 mm 2 mps 720 mmHg 34%
    16:00 +30°C° 0 mm 2 mps 720 mmHg 41%
    17:00 +29°C° 0 mm 1 mps 720 mmHg 49%
    18:00 +27°C° 0 mm 1 mps 720 mmHg 56%
    19:00 +26°C° 0 mm 1 mps 720 mmHg 63%
    20:00 +25°C° 0 mm 1 mps 721 mmHg 69%
    21:00 +24°C° 0 mm 1 mps 721 mmHg 76%
    22:00 +23°C° 0 mm 1 mps 721 mmHg 78%
    23:00 +21°C° 0 mm 0 mps 721 mmHg 81%

    Day after tomorrow, 19 September, Thursday

    Time Temperature Precipitation Wind Pressure Humidity
    00:00 +20°C° 0 mm 0 mps 721 mmHg 84%
    01:00 +20°C° 0 mm 0 mps 720 mmHg 83%
    02:00 +20°C° 0 mm 0 mps 720 mmHg 83%
    03:00 +20°C° 0 mm 0 mps 720 mmHg 82%
    04:00 +20°C° 0 mm 0 mps 720 mmHg 83%
    05:00 +19°C° 0 mm 0 mps 720 mmHg 83%
    06:00 +19°C° 0 mm 0 mps 720 mmHg 84%
    07:00 +23°C° 0 mm 1 mps 721 mmHg 77%
    08:00 +24°C° 0 mm 1 mps 721 mmHg 69%
    09:00 +25°C° 0 mm 1 mps 722 mmHg 62%
    10:00 +26°C° 0.1 mm 2 mps 722 mmHg 59%
    11:00 +27°C° 0.1 mm 2 mps 722 mmHg 57%
    12:00 +28°C° 0.1 mm 3 mps 722 mmHg 54%
    13:00 +28°C° 0.2 mm 3 mps 722 mmHg 55%
    14:00 +28°C° 0.2 mm 3 mps 722 mmHg 56%
    15:00 +28°C° 0.2 mm 3 mps 721 mmHg 57%
    16:00 +27°C° 0.5 mm 3 mps 721 mmHg 64%
    17:00 +26°C° 0.5 mm 2 mps 721 mmHg 71%
    18:00 +24°C° 0.5 mm 2 mps 721 mmHg 79%
    19:00 +24°C° 0 mm 2 mps 721 mmHg 82%
    20:00 +23°C° 0 mm 2 mps 722 mmHg 86%
    21:00 +23°C° 0 mm 2 mps 722 mmHg 89%
    22:00 +21°C° 0 mm 2 mps 722 mmHg 90%
    23:00 +21°C° 0 mm 2 mps 722 mmHg 90%

    20 September, Friday

    Time Temperature Precipitation Wind Pressure Humidity
    00:00 +21°C° 0 mm 2 mps 722 mmHg 90%
    01:00 +20°C° 0 mm 2 mps 722 mmHg 91%
    02:00 +21°C° 0 mm 1 mps 722 mmHg 92%
    03:00 +21°C° 0 mm 1 mps 722 mmHg 93%
    04:00 +20°C° 0 mm 2 mps 721 mmHg 93%
    05:00 +19°C° 0 mm 2 mps 721 mmHg 92%
    06:00 +19°C° 0 mm 2 mps 721 mmHg 92%
    07:00 +20°C° 0 mm 3 mps 721 mmHg 88%
    08:00 +21°C° 0 mm 3 mps 722 mmHg 84%
    09:00 +21°C° 0 mm 4 mps 722 mmHg 80%
    10:00 +22°C° 0 mm 4 mps 722 mmHg 75%
    11:00 +23°C° 0 mm 4 mps 722 mmHg 70%
    12:00 +25°C° 0 mm 4 mps 722 mmHg 65%
    13:00 +25°C° 0 mm 4 mps 721 mmHg 65%
    14:00 +25°C° 0 mm 4 mps 721 mmHg 65%
    15:00 +25°C° 0 mm 5 mps 721 mmHg 65%
    16:00 +23°C° 0.2 mm 4 mps 720 mmHg 71%
    17:00 +22°C° 0.2 mm 4 mps 720 mmHg 77%
    18:00 +21°C° 0.2 mm 3 mps 720 mmHg 83%
    19:00 +21°C° 0.1 mm 3 mps 720 mmHg 85%
    20:00 +20°C° 0.1 mm 3 mps 720 mmHg 88%
    21:00 +20°C° 0.1 mm 3 mps 721 mmHg 90%
    22:00 +20°C° 0.1 mm 3 mps 721 mmHg 90%
    23:00 +20°C° 0.1 mm 3 mps 721 mmHg 90%

    21 September, Saturday

    Time Temperature Precipitation Wind Pressure Humidity
    00:00 +20°C° 0.1 mm 3 mps 720 mmHg 91%
    01:00 +20°C° 0.3 mm 3 mps 720 mmHg 91%
    02:00 +20°C° 0.3 mm 4 mps 720 mmHg 92%
    03:00 +20°C° 0.3 mm 4 mps 720 mmHg 92%
    04:00 +20°C° 0.3 mm 3 mps 720 mmHg 92%
    05:00 +20°C° 0.3 mm 3 mps 719 mmHg 93%
    06:00 +20°C° 0.3 mm 2 mps 719 mmHg 93%
    07:00 +21°C° 0.4 mm 2 mps 720 mmHg 88%
    08:00 +22°C° 0.4 mm 1 mps 720 mmHg 82%
    09:00 +23°C° 0.4 mm 1 mps 720 mmHg 77%
    10:00 +24°C° 0.5 mm 2 mps 720 mmHg 71%
    11:00 +26°C° 0.5 mm 2 mps 720 mmHg 64%
    12:00 +27°C° 0.5 mm 2 mps 720 mmHg 58%
    13:00 +27°C° 0.7 mm 3 mps 720 mmHg 56%
    14:00 +28°C° 0.7 mm 3 mps 720 mmHg 55%
    15:00 +28°C° 0.7 mm 3 mps 719 mmHg 54%
    16:00 +27°C° 0.7 mm 2 mps 719 mmHg 61%
    17:00 +26°C° 0.7 mm 2 mps 719 mmHg 68%
    18:00 +25°C° 0.7 mm 1 mps 719 mmHg 75%
    19:00 +24°C° 0.1 mm 1 mps 719 mmHg 78%
    20:00 +23°C° 0.1 mm 1 mps 720 mmHg 82%
    21:00 +23°C° 0.1 mm 1 mps 720 mmHg 86%
    22:00 +23°C° 0.4 mm 1 mps 720 mmHg 87%
    23:00 +22°C° 0.4 mm 1 mps 720 mmHg 88%

    22 September, Sunday

    Time Temperature Precipitation Wind Pressure Humidity
    00:00 +22°C° 0.4 mm 1 mps 720 mmHg 89%
    01:00 +22°C° 0.4 mm 1 mps 720 mmHg 87%
    02:00 +22°C° 0.4 mm 1 mps 720 mmHg 85%
    03:00 +22°C° 0.4 mm 1 mps 720 mmHg 83%
    04:00 +22°C° 0.3 mm 1 mps 720 mmHg 81%
    05:00 +20°C° 0.3 mm 0 mps 720 mmHg 80%
    06:00 +20°C° 0.3 mm 0 mps 720 mmHg 79%
    07:00 +23°C° 0.1 mm 1 mps 720 mmHg 71%
    08:00 +25°C° 0.1 mm 1 mps 721 mmHg 63%
    09:00 +26°C° 0.1 mm 1 mps 721 mmHg 55%
    10:00 +27°C° 0 mm 1 mps 721 mmHg 51%
    11:00 +28°C° 0 mm 1 mps 722 mmHg 47%
    12:00 +29°C° 0 mm 1 mps 722 mmHg 43%
    13:00 +29°C° 0.1 mm 1 mps 721 mmHg 43%
    14:00 +29°C° 0.1 mm 2 mps 721 mmHg 43%
    15:00 +29°C° 0.1 mm 2 mps 721 mmHg 43%
    16:00 +28°C° 0.4 mm 2 mps 721 mmHg 51%
    17:00 +26°C° 0.4 mm 2 mps 721 mmHg 59%
    18:00 +25°C° 0.4 mm 2 mps 721 mmHg 67%
    19:00 +24°C° 0.1 mm 1 mps 722 mmHg 70%
    20:00 +24°C° 0.1 mm 1 mps 722 mmHg 73%
    21:00 +21°C° 0.1 mm 0 mps 723 mmHg 76%
    22:00 +21°C° 0.1 mm 0 mps 723 mmHg 78%
    23:00 +21°C° 0.1 mm 0 mps 723 mmHg 79%
    Show more